Вернуться в каталог

STARLINK-37477

АктивенСвязьSSO
NORAD 68912·PAYLOAD·🇺🇸 United States

Запущен Apr 30, 2026 с Vandenberg Space Force Base

Loading…

Ближайшие Пролёты (ближайшие 24 часа)

TLE

СвежийSource: CelesTrak SupGP

Эпоха: Sep 14, 2026, 22:47 UTC

1 68912C 26097T   26257.94979167  .00082215  00000+0  25506-2 0  2578
2 68912  97.2853  92.2061 0001659  94.3693 265.6025 15.33416017    15

Отслеживайте STARLINK-37477 в реальном времени с AllMySat

Download on the App Store